CAPE
0 0 0 0 0 0 0 0 3 0 0 10 7 1 0 2 0 0 0 0 0 19 48 285 227 198 178 5 0 0 0 0 0 2 1 1 1 1 1 2 2 2 0 0
0 1 0 0 0 0 0 0 0 0 0 7 14 1 0 0 10 3 0 0 0 24 260 355 248 85 0 0 0 0 0 1 2 2 1 1 2 2 2 2 0 0 0 0
0 1 8 0 0 0 0 0 0 0 0 0 0 0 0 0 0 0 0 0 13 229 509 207 22 0 0 0 0 0 0 2 3 2 2 3 2 2 1 0 0 0 0 0
0 0 0 0 0 0 0 0 0 0 0 0 0 0 0 0 0 5 1 0 87 259 248 21 0 0 0 0 0 1 4 5 5 4 4 3 1 0 0 0 0 0 0 0
0 0 0 0 0 0 0 0 0 0 0 0 0 0 2 0 0 0 0 20 169 182 31 0 0 0 0 0 0 2 3 3 2 1 1 0 0 0 0 0 0 0 0 0
2 8 0 0 0 15 3 0 0 0 0 0 0 0 0 0 0 0 12 37 19 0 0 0 0 0 0 0 1 2 1 1 0 0 0 0 0 0 0 0 0 0 0 0
0 9 13 23 1 25 11 0 0 2 5 0 0 0 0 0 0 0 0 0 0 0 0 0 0 0 0 0 0 0 0 0 0 0 0 0 0 0 0 0 0 0 0 0
0 2 2 4 11 22 0 0 5 22 53 52 10 1 0 0 0 0 0 0 0 0 0 0 0 0 0 0 0 0 0 0 0 0 0 0 0 0 0 0 0 0 0 0
6 0 0 49 0 7 0 0 35 23 56 45 5 3 2 0 0 0 0 0 0 0 0 0 0 0 0 0 0 0 0 0 0 0 0 0 0 0 0 0 0 0 0 0
10 0 0 23 10 0 0 0 8 13 13 16 20 0 0 0 0 0 0 0 0 0 0 0 0 0 0 0 0 0 0 0 0 0 0 0 0 0 0 0 0 0 0 0
0 0 0 0 0 0 0 0 0 1 2 0 0 0 0 0 0 0 0 0 0 0 0 0 0 0 0 0 0 0 0 0 0 0 0 0 0 0 0 0 0 0 0 0
0 0 0 3 2 0 0 0 0 9 0 0 0 0 0 0 0 0 0 0 0 0 0 0 0 0 0 0 0 0 0 0 0 0 0 0 0 0 0 0 0 0 0 0
9 97 121 61 8 0 0 4 1 3 0 0 0 0 0 0 0 0 0 0 0 0 0 0 0 0 0 0 0 0 0 0 0 0 0 0 0 0 0 0 0 0 0 0
12 33 60 13 0 0 0 0 0 0 0 0 0 0 0 0 0 0 0 0 0 0 0 0 0 0 0 0 0 0 0 0 0 0 0 0 0 0 0 0 0 0 0 0
86 44 21 0 0 0 0 0 0 0 0 0 0 0 0 0 0 0 0 0 0 0 0 0 0 0 0 0 0 0 0 0 0 0 0 0 0 0 0 0 0 0 0 0
28 1 0 0 0 0 0 0 0 0 0 0 0 0 0 0 0 0 0 0 0 0 0 0 0 0 1 0 0 0 0 0 0 0 0 0 0 0 0 0 0 0 0 0
0 0 0 0 0 0 0 0 0 0 0 0 0 0 0 0 0 0 0 0 0 0 0 0 0 0 0 0 0 0 0 0 0 0 0 0 0 0 0 0 0 0 0 0
0 0 0 0 0 0 0 0 0 0 0 0 0 0 0 0 0 0 0 0 0 0 0 1 0 0 0 0 0 0 0 0 0 0 0 0 0 0 0 0 0 0 0 0
0 0 0 0 0 0 0 0 0 1 0 0 0 0 1 1 1 0 0 0 0 0 1 0 0 0 0 0 0 0 0 0 0 0 0 0 0 0 0 0 0 0 0 0
1 1 1 1 2 1 1 2 1 0 3 0 1 1 1 0 0 0 0 0 0 0 0 0 0 0 0 0 0 0 0 0 0 0 0 0 0 0 0 0 0 0 0 0
5 4 4 4 3 3 1 1 1 1 1 1 0 0 0 0 0 0 0 0 0 0 0 0 0 0 0 0 0 0 0 0 0 0 0 0 0 0 0 0 0 0 0 0
1 1 1 1 1 1 1 1 1 1 0 0 0 0 0 0 0 0 0 0 0 0 0 0 0 0 0 0 0 0 0 0 0 0 0 0 0 0 0 0 0 0 0 0
0 1 1 1 0 1 0 0 0 0 0 0 0 0 0 0 0 0 0 0 0 0 0 0 0 0 0 0 0 0 0 0 0 0 0 0 0 0 0 0 0 0 0 0
1 1 1 0 1 0 0 0 0 0 0 0 0 0 0 0 0 0 0 0 0 0 0 0 0 0 0 0 0 0 0 0 0 0 0 0 0 0 0 0 0 0 0 0
1 1 0 0 0 0 0 0 0 0 0 0 0 0 0 0 0 0 0 0 0 0 0 0 0 0 0 0 0 0 0 0 0 0 0 0 0 0 0 0 0 0 0 0
0 0 0 0 0 0 0 0 0 0 0 0 0 0 0 0 0 0 0 0 0 0 0 0 0 0 0 0 0 0 0 0 0 0 0 0 0 0 0 0 0 0 0 0
0 0 0 0 0 0 0 0 0 0 0 0 0 0 0 0 0 0 0 0 0 0 0 0 0 0 0 0 0 0 0 0 0 0 0 0 0 0 0 0 0 0 0 0
CIN
-0 -0 -8 -0 -0 -0 -0 -0 -4 -0 -0 -21 -12 -14 -4 -13 -0 -21 -0 -0 -0 -35 -82 -138 -192 -320 -376 -86 -0 -0 -0 -0 -0 -0 -0 -0 -0 -0 -0 -0 -0 -0 -0 -0
-0 -5 -0 -0 -0 -0 -0 -0 -0 -0 -0 -19 -17 -10 -0 -0 -31 -44 -0 -0 -0 -69 -92 -147 -181 -379 -1 -0 -0 -0 -0 -0 -0 -0 -0 -0 -0 -0 -0 -0 -0 -0 -0 -0
-0 -41 -21 -0 -0 -1 -0 -0 -0 -0 -0 -0 -0 -0 -0 -0 -0 -0 -0 -0 -73 -88 -137 -223 -357 -0 -0 -0 -0 -0 -0 -0 -0 -0 -0 -0 -0 -0 -0 -0 -0 -0 -0 -0
-0 -0 -6 -0 -0 -0 -0 -0 -0 -0 -0 -0 -0 -0 -0 -0 -0 -63 -49 -0 -137 -184 -267 -327 -0 -0 -0 -0 -0 -0 -0 -0 -0 -0 -0 -0 -0 -0 -0 -0 -0 -0 -0 -0
-0 -0 -0 -0 -0 -0 -0 -0 -0 -0 -0 -0 -0 -0 -57 -0 -0 -9 -0 -179 -241 -292 -402 -0 -0 -0 -0 -0 -0 -0 -0 -0 -0 -0 -0 -0 -0 -0 -0 -0 -0 -0 -0 -0
-10 -5 -0 -0 -0 -42 -11 -0 -0 -0 -0 -0 -0 -0 -0 -0 -0 -0 -204 -234 -282 -0 -0 -0 -0 -0 -0 -0 -0 -0 -0 -0 -0 -0 -0 -0 -0 -0 -0 -0 -0 -0 -0 -0
-0 -10 -33 -18 -17 -26 -26 -0 -0 -51 -65 -0 -0 -0 -0 -0 -0 -0 -0 -0 -0 -0 -0 -0 -0 -0 -0 -0 -0 -0 -0 -0 -0 -0 -0 -0 -0 -0 -0 -0 -0 -0 -0 -0
-0 -0 -11 -32 -18 -10 -0 -0 -60 -49 -29 -27 -59 -27 -0 -0 -0 -0 -0 -0 -0 -0 -0 -0 -0 -0 -0 -0 -0 -0 -0 -0 -0 -0 -0 -0 -0 -0 -0 -0 -0 -0 -0 -0
-13 -0 -2 -41 -0 -45 -3 -0 -79 -59 -69 -86 -110 -129 -161 -0 -0 -0 -0 -0 -0 -0 -0 -0 -0 -0 -0 -0 -0 -0 -0 -0 -0 -0 -0 -0 -0 -0 -0 -0 -0 -0 -0 -0
-28 -0 -0 -55 -91 -0 -0 -0 -67 -83 -82 -106 -91 -0 -0 -0 -0 -0 -0 -0 -0 -0 -0 -0 -0 -0 -0 -0 -0 -0 -0 -0 -0 -0 -0 -0 -0 -0 -0 -0 -0 -0 -0 -0
-0 -0 -0 -0 -0 -0 -0 -0 -0 -13 -61 -0 -0 -0 -0 -0 -0 -0 -0 -0 -0 -0 -0 -0 -0 -0 -0 -0 -0 -0 -0 -0 -0 -0 -0 -0 -0 -0 -0 -0 -0 -0 -0 -0
-0 -0 -0 -9 -42 -0 -0 -2 -0 -49 -0 -0 -0 -0 -0 -0 -0 -0 -0 -0 -0 -0 -0 -0 -0 -0 -0 -0 -0 -0 -0 -0 -0 -0 -0 -0 -0 -0 -0 -0 -0 -0 -0 -0
-12 -20 -21 -48 -122 -6 -5 -156 -131 -105 -0 -0 -0 -0 -0 -0 -0 -0 -0 -0 -0 -0 -0 -0 -0 -0 -0 -0 -0 -0 -0 -0 -0 -0 -0 -0 -0 -0 -0 -0 -0 -0 -0 -0
-61 -43 -34 -86 -0 -0 -0 -0 -0 -0 -0 -0 -0 -0 -0 -0 -0 -0 -0 -0 -0 -0 -0 -0 -0 -0 -0 -0 -0 -0 -0 -0 -0 -0 -0 -0 -0 -0 -0 -0 -0 -0 -0 -0
-57 -84 -84 -0 -0 -0 -0 -0 -0 -0 -0 -0 -0 -0 -0 -0 -0 -0 -0 -0 -0 -0 -0 -0 -0 -0 -0 -0 -0 -0 -0 -0 -0 -0 -0 -0 -0 -0 -0 -0 -0 -0 -0 -0
-79 -18 -0 -0 -0 -0 -0 -0 -0 -0 -0 -0 -0 -0 -0 -0 -0 -0 -0 -0 -0 -0 -0 -0 -0 -0 -0 -0 -0 -0 -0 -0 -0 -0 -0 -0 -0 -0 -0 -0 -0 -0 -0 -0
-0 -0 -0 -0 -0 -0 -0 -0 -0 -0 -0 -0 -0 -0 -0 -0 -0 -0 -0 -0 -0 -0 -0 -0 -0 -0 -0 -0 -0 -0 -0 -0 -0 -0 -0 -0 -0 -0 -0 -0 -0 -0 -0 -0
-0 -0 -0 -0 -0 -0 -0 -0 -0 -0 -0 -0 -0 -0 -0 -0 -0 -0 -0 -0 -0 -0 -0 -0 -0 -0 -0 -0 -0 -0 -0 -0 -0 -0 -0 -0 -0 -0 -0 -0 -0 -0 -0 -0
-0 -0 -0 -0 -0 -0 -0 -0 -0 -0 -0 -0 -0 -0 -0 -0 -0 -0 -0 -0 -0 -0 -0 -0 -0 -0 -0 -0 -0 -0 -0 -0 -0 -0 -0 -0 -0 -0 -0 -0 -0 -0 -0 -0
-0 -0 -0 -0 -0 -0 -0 -0 -0 -0 -0 -0 -0 -0 -0 -0 -0 -0 -0 -0 -0 -0 -0 -0 -0 -0 -0 -0 -0 -0 -0 -0 -0 -0 -0 -0 -0 -0 -0 -0 -0 -0 -0 -0
-0 -0 -0 -0 -0 -0 -0 -0 -0 -0 -0 -0 -0 -0 -0 -0 -0 -0 -0 -0 -0 -0 -0 -0 -0 -0 -0 -0 -0 -0 -0 -0 -0 -0 -0 -0 -0 -0 -0 -0 -0 -0 -0 -0
-0 -0 -0 -0 -0 -0 -0 -0 -0 -0 -0 -0 -0 -0 -0 -0 -0 -0 -0 -0 -0 -0 -0 -0 -0 -0 -0 -0 -0 -0 -0 -0 -0 -0 -0 -0 -0 -0 -0 -0 -0 -0 -0 -0
-0 -0 -0 -0 -0 -0 -0 -0 -0 -0 -0 -0 -0 -0 -0 -0 -0 -0 -0 -0 -0 -0 -0 -0 -0 -0 -0 -0 -0 -0 -0 -0 -0 -0 -0 -0 -0 -0 -0 -0 -0 -0 -0 -0
-0 -0 -0 -0 -0 -0 -0 -0 -0 -0 -0 -0 -0 -0 -0 -0 -0 -0 -0 -0 -0 -0 -0 -0 -0 -0 -0 -0 -0 -0 -0 -0 -0 -0 -0 -0 -0 -0 -0 -0 -0 -0 -0 -0
-0 -0 -0 -0 -0 -0 -0 -0 -0 -0 -0 -0 -0 -0 -0 -0 -0 -0 -0 -0 -0 -0 -0 -0 -0 -0 -0 -0 -0 -0 -0 -0 -0 -0 -0 -0 -0 -0 -0 -0 -0 -0 -0 -0
-0 -0 -0 -0 -0 -0 -0 -0 -0 -0 -0 -0 -0 -0 -0 -0 -0 -0 -0 -0 -0 -0 -0 -0 -0 -0 -0 -0 -0 -0 -0 -0 -0 -0 -0 -0 -0 -0 -0 -0 -0 -0 -0 -0
-0 -0 -0 -0 -0 -0 -0 -0 -0 -0 -0 -0 -0 -0 -0 -0 -0 -0 -0 -0 -0 -0 -0 -0 -0 -0 -0 -0 -0 -0 -0 -0 -0 -0 -0 -0 -0 -0 -0 -0 -0 -0 -0 -0
Wind_Speed
43 38 28 34 28 26 29 31 25 25 30 33 14 18 9 9 4 3 1 0 5 3 3 3 5 7 7 7 8 7 8 9 9 8 7 8 9 11 10 10 9 10 10 10
44 39 36 36 35 30 28 34 34 28 20 10 18 20 13 7 0 2 5 3 16 11 2 1 4 9 9 9 10 10 11 10 8 8 8 9 10 11 10 10 10 10 10 9
49 41 36 48 37 31 29 34 29 30 36 33 29 19 18 11 2 2 1 6 13 7 2 3 6 8 10 10 10 11 10 9 8 7 8 8 9 9 10 9 9 9 9 10
36 35 52 33 31 30 32 35 24 26 23 23 23 20 15 9 7 4 5 10 11 8 6 7 8 9 8 9 10 10 10 9 8 7 7 7 8 7 7 7 7 8 10 12
33 40 35 43 30 32 32 36 26 27 28 28 29 20 14 10 9 7 8 12 11 9 8 9 9 8 9 11 12 10 8 6 5 5 6 5 5 5 6 7 9 11 12 12
31 39 51 34 34 30 28 38 25 26 32 32 24 19 16 11 9 9 10 9 10 8 8 8 8 8 10 11 8 6 5 4 4 4 3 4 5 6 7 9 11 13 12 11
35 34 35 25 21 30 35 30 27 26 30 33 31 25 16 8 9 9 10 10 10 9 9 8 7 7 7 5 5 5 4 4 4 4 5 5 6 8 9 10 10 11 13 13
34 37 40 26 18 26 28 29 31 28 27 22 15 11 6 7 9 10 10 9 9 9 11 9 7 6 5 5 5 6 6 5 5 5 7 8 9 9 9 9 12 14 16 18
28 34 27 26 29 20 21 21 21 21 19 17 12 12 8 9 10 11 9 9 9 9 9 10 9 7 7 6 6 6 6 6 9 9 9 9 10 12 13 14 15 17 18 19
31 32 36 30 26 24 27 24 21 22 20 19 17 14 13 13 13 12 11 11 10 9 10 10 9 8 6 5 6 7 7 9 10 11 13 14 16 16 16 17 18 19 20 20
33 30 36 33 30 30 32 29 25 26 22 19 18 16 15 14 13 12 11 11 9 9 11 12 10 9 6 5 6 7 9 11 13 15 15 16 17 18 18 20 21 21 22 22
30 31 24 26 23 24 24 24 31 24 21 20 23 17 14 13 11 10 10 8 9 10 10 12 12 13 13 10 9 9 11 13 15 16 16 17 19 21 21 20 21 21 22 23
27 24 18 13 14 17 17 17 19 21 22 24 22 15 13 11 10 8 8 8 8 10 10 11 12 13 14 13 12 12 14 15 16 18 20 22 22 23 25 23 23 24 24 24
30 22 21 20 20 19 20 21 20 19 20 21 17 12 9 9 8 8 8 8 8 10 11 12 13 14 15 14 14 15 16 17 19 21 23 24 26 27 27 27 28 28 26 27
21 21 19 15 17 18 18 16 17 17 16 15 13 10 9 8 9 9 9 8 9 11 12 14 16 19 19 18 17 18 20 21 22 23 24 25 26 27 28 28 30 31 32 30
19 16 14 13 14 15 13 13 12 14 13 13 11 10 9 8 8 10 11 10 11 14 15 17 18 20 20 19 18 19 20 21 22 23 24 25 27 28 29 31 32 33 34 33
18 18 14 15 13 14 13 12 10 11 10 10 10 8 8 8 10 11 12 14 14 16 17 17 18 17 18 18 19 20 21 22 24 25 26 27 29 30 32 33 34 35 35 33
13 14 12 9 10 10 11 10 10 10 11 10 9 9 10 10 10 11 12 13 15 16 17 17 17 18 19 21 21 22 23 25 26 27 28 30 32 34 35 36 36 36 37 36
11 9 9 9 8 8 8 9 10 11 10 9 10 11 11 12 12 12 12 14 14 15 17 18 19 20 22 23 23 24 26 28 30 31 32 33 35 37 36 37 39 39 39 39
12 10 9 8 8 7 7 9 9 11 10 10 11 12 12 13 13 14 14 16 16 16 17 19 21 23 25 26 28 28 30 32 34 35 36 37 38 39 39 39 39 39 39 39
10 8 8 7 7 7 7 8 9 9 10 11 12 13 13 13 14 14 15 17 17 18 19 22 24 26 28 30 31 32 34 35 37 38 39 40 40 40 40 40 40 41 41 40
6 5 5 6 7 9 10 11 12 12 13 13 14 14 14 15 16 17 18 18 18 19 22 25 28 30 31 32 33 35 36 38 39 40 40 40 41 43 43 43 42 40 39 39
7 7 9 10 11 12 14 14 14 14 14 14 15 16 16 16 17 17 19 21 20 22 25 27 30 32 34 35 35 36 38 39 40 39 39 41 42 42 42 41 41 40 39 37
11 11 12 13 14 15 15 14 14 15 16 17 18 17 17 17 20 21 22 21 22 25 26 29 32 34 34 35 36 38 40 40 40 41 40 39 40 40 41 41 40 38 38 37
13 12 12 12 12 12 13 13 14 16 17 18 19 20 20 21 20 21 23 25 25 27 28 31 32 34 34 37 39 39 39 39 40 39 40 40 41 41 40 38 37 36 35 35
10 10 11 12 13 13 13 14 15 16 17 18 20 21 22 22 22 24 25 26 27 29 30 32 33 35 37 38 38 38 38 39 39 39 39 40 40 39 37 36 35 34 34 33
12 13 13 14 15 15 16 17 17 18 18 19 21 22 23 23 24 25 26 27 29 30 32 33 34 36 37 37 36 37 38 38 38 38 39 39 37 35 34 34 33 32 31 30
Wind_Direction
255 249 253 250 251 259 255 263 267 276 277 272 297 309 344 331 335 316 332 185 357 203 312 352 357 19 6 338 329 328 324 326 327 325 326 327 326 328 330 329 328 327 328 330
252 256 247 253 254 258 257 261 265 273 280 213 293 297 316 303 272 116 135 356 323 326 176 136 309 313 326 328 323 328 329 329 333 333 329 328 327 327 328 328 330 330 328 330
247 253 255 251 250 256 260 262 269 269 268 272 283 295 307 323 300 345 50 342 327 348 326 295 302 307 315 321 325 326 327 329 327 326 324 324 328 326 325 325 332 334 336 335
252 254 244 258 256 260 263 263 273 270 280 287 296 299 306 307 321 327 328 326 324 328 319 311 310 311 318 324 325 323 318 312 312 316 322 327 327 328 333 334 333 332 330 329
249 247 258 253 256 259 263 263 273 273 277 282 287 301 302 310 320 321 325 322 323 324 316 313 309 313 317 319 322 320 319 320 317 318 323 333 336 334 335 335 330 329 328 330
254 252 246 262 257 262 269 262 272 277 276 279 290 291 297 303 316 321 324 329 327 327 324 317 312 312 313 317 323 326 334 341 345 348 347 337 335 333 331 329 328 333 338 339
250 256 259 278 258 259 260 269 271 280 277 278 284 289 293 297 317 325 328 328 331 331 323 322 322 323 320 324 325 340 348 349 349 343 336 336 334 329 329 332 340 338 336 332
250 255 255 270 279 252 271 271 271 277 284 291 293 302 295 302 315 320 323 328 332 330 330 330 329 333 331 332 346 345 343 339 338 338 330 327 328 334 337 333 327 325 325 327
254 254 274 273 270 283 287 286 288 287 289 291 294 293 291 301 314 318 322 323 328 333 334 333 333 326 325 331 337 336 338 336 327 334 337 336 332 330 327 327 323 321 321 322
267 265 264 274 275 280 282 279 287 292 294 295 293 293 293 298 307 312 318 319 328 333 329 330 332 328 326 328 331 333 335 332 333 334 334 330 329 330 328 326 325 323 321 321
271 268 264 265 266 271 271 281 282 283 296 304 301 295 297 303 308 311 314 321 331 336 336 335 343 348 359 348 338 337 334 331 325 325 326 327 331 331 330 330 326 322 323 322
261 255 265 271 272 271 273 276 274 290 291 296 302 294 296 301 309 312 316 325 331 344 345 342 347 344 341 339 335 332 330 328 327 327 325 325 323 326 334 333 332 330 327 324
261 265 272 282 290 290 289 296 294 291 295 296 298 294 298 306 314 323 328 331 331 338 346 347 343 343 344 345 344 340 332 331 329 327 327 326 324 322 319 323 325 325 325 324
265 273 277 279 283 291 295 295 302 306 308 304 309 312 315 319 327 329 333 344 348 347 345 345 343 343 343 344 343 339 337 337 330 327 324 323 322 321 322 320 318 319 320 320
276 276 277 281 289 300 306 311 312 310 317 325 332 330 329 327 334 332 344 353 2 358 346 340 334 331 334 336 337 332 327 325 325 325 324 323 323 322 322 321 320 321 322 322
268 273 282 290 302 309 318 322 323 320 325 328 336 337 341 346 349 352 352 351 339 335 337 336 332 331 334 337 338 334 333 330 329 328 327 327 326 325 324 323 322 322 322 322
253 265 277 289 303 312 318 329 337 336 341 346 352 359 6 5 1 358 357 357 354 348 345 343 342 347 348 348 344 341 337 335 333 331 329 328 327 326 324 323 323 322 322 323
280 278 284 294 304 314 325 335 346 351 348 351 356 360 0 358 353 352 352 357 356 354 354 355 357 353 349 345 343 342 338 335 333 331 331 329 327 326 324 323 323 323 322 322
298 296 298 309 319 327 332 336 340 346 354 357 5 3 7 9 10 11 9 9 6 3 358 358 354 349 346 346 346 343 339 336 334 331 329 328 326 325 324 324 323 322 322 323
295 303 311 318 323 331 339 343 349 355 6 20 26 25 23 19 20 20 14 7 3 1 360 356 353 350 346 343 341 340 337 334 332 331 330 328 327 326 325 325 325 325 325 325
304 311 319 323 329 344 354 4 18 27 28 31 37 34 31 24 17 13 6 3 3 3 360 355 351 347 344 340 340 338 336 334 333 331 330 329 328 328 327 327 326 324 324 324
340 355 18 32 34 33 35 44 50 53 47 41 35 31 27 22 17 13 10 4 360 2 357 352 348 345 343 341 340 338 337 335 334 333 332 332 331 328 328 327 326 326 326 326
49 54 58 58 58 58 57 54 49 43 36 28 25 22 15 12 9 4 358 359 359 356 352 350 348 346 343 342 341 341 339 338 337 336 335 333 331 331 330 330 329 329 329 329
72 68 65 66 64 60 54 45 38 30 26 20 16 15 14 10 5 3 1 360 359 355 352 349 347 348 348 346 344 342 340 339 339 338 338 338 335 334 333 331 330 331 332 332
70 66 60 55 48 40 37 31 27 20 17 15 13 11 9 6 4 3 1 358 355 352 352 351 351 350 349 347 345 345 345 343 342 341 339 338 337 336 336 336 335 335 335 335
49 41 34 30 29 25 23 24 21 17 13 9 6 6 6 5 5 1 359 358 357 356 354 353 352 351 350 349 349 348 348 347 346 345 344 343 342 341 341 342 341 341 339 338
34 33 31 27 21 20 18 15 12 10 10 9 7 5 3 1 0 360 0 359 358 356 355 355 355 353 353 353 354 353 352 351 351 350 348 347 348 350 350 348 347 346 346 346